User: anonymous
Location: Mactaquac Provincial Park
(45.9573°N, 66.8897°W)
Time: 01:48:13
(UTC-03:00)
Language:

Cosmos 1867 - Orbit

View from above orbital plane
View from above orbital plane
View from above satellite
View from above satellite

Ground track
Ground track

The orbit data is extracted from the following two-line orbital elements,

1 18187U 87060A   14293.90821432 -.00000032  00000-0  25662-4 0  1986
2 18187 065.0122 064.1355 0013978 266.1447 093.8039 14.31029618425159
Epoch (UTC): 20 October 2014 21:47:49
Eccentricity: 0.0013978
inclination: 65.0122°
perigee height: 778 km
apogee height: 798 km
right ascension of ascending node: 64.1355°
argument of perigee: 266.1447°
revolutions per day: 14.31029618
mean anomaly at epoch: 93.8039°
orbit number at epoch: 42515

The dashed part of the orbit path shows where the satellite is in the earth's shadow,  

DLR